#timestamp,LO_Frequency,Hit,StdDev 
1502190015.3,286046999.2,N,0.4
1502190035.2,286046999.0,N,0.3
1502190055.0,286046997.0,Y,0.0
1502190055.9,286046997.0,P,1.0
1502190075.8,286046998.2,N,0.8
1502190095.6,286047000.5,N,1.3
1502190115.4,286046998.5,N,1.1
1502190135.3,286046998.4,N,1.0
1502190155.1,286046998.8,N,1.0
1502190175.9,286046998.3,N,0.9
1502190195.7,286046998.3,N,0.9
1502190215.5,286046998.7,N,0.8
1502190235.4,286046996.6,Y,0.0
1502190255.2,286046998.5,P,0.0
1502190275.1,286046998.2,P,0.2
1502190276.0,286046998.2,P,0.2
1502190295.8,286047000.3,N,0.8
1502190315.6,286047002.7,Y,0.0
1502190335.5,286047001.5,P,1.4
1502190355.3,286047002.1,N,1.5
1502190375.2,286043213.5,P,1639.9
1502190395.9,286046999.8,N,1514.8
1502190415.7,286047000.3,N,1411.3
1502190435.6,286047000.4,N,1325.1
1502190455.4,286047000.6,N,1252.4
1502190475.3,286046999.9,N,1190.1
1502190495.1,286046999.9,N,1136.0
1502190496.0,286046999.9,N,1088.6
1502190515.8,286047000.2,N,1046.6
1502190535.7,286047000.1,N,1009.0
1502190555.5,286047002.4,N,975.3
1502190575.4,286047002.6,N,944.7
1502190595.2,286047002.5,N,916.7
1502190615.0,286047002.2,N,891.1
1502190615.9,286047002.2,N,867.5
1502190635.8,286047002.4,N,845.7
1502190655.6,286046999.8,N,825.4
1502190675.4,286047002.0,N,806.6
1502190695.3,286047000.1,N,788.9
1502190715.1,286047000.1,N,772.4
1502190735.9,286042519.6,Y,0.0
1502190755.7,286047165.4,P,164.6
1502190775.5,286047165.7,N,155.2
1502190795.4,286047165.4,N,142.6
1502190815.2,286047162.9,N,131.5
1502190835.1,286047165.4,N,122.5
1502190836.0,286047165.4,N,115.1
1502190855.8,286047163.0,N,108.7
1502190875.6,286047165.5,N,103.3
1502190895.5,286047163.4,N,98.5
1502190915.3,286047165.9,N,94.5
1502190935.2,286047165.1,N,90.8
1502190955.9,286047163.0,N,87.5
1502190975.7,286047165.5,N,84.6
1502190995.6,286047165.7,N,82.0
1502191015.4,286047164.9,N,79.5
1502191035.2,286047165.6,N,77.3
1502191055.1,286047163.3,N,75.3
1502191056.0,286047163.3,N,73.4
1502191075.8,286047165.8,N,71.6
1502191095.7,286047166.0,N,70.0
1502191115.5,286047165.6,N,68.5
1502191135.3,286047165.8,N,67.0
1502191155.2,286047165.8,N,65.7
1502191175.0,286047167.5,N,64.4
1502191175.9,286047167.5,N,63.3
1502191195.8,286047167.4,N,62.1
1502191215.6,286047164.5,N,61.1
1502191235.4,286047167.1,N,60.1
1502191255.3,286047166.4,N,59.1
1502191275.1,286047167.3,N,1.3
1502191295.9,286047166.7,Y,0.0
1502191315.7,286043162.1,P,2001.6
1502191335.5,286682708.2,P,300545.8
1502191355.4,286047000.4,N,275804.4
1502191375.2,286047001.0,N,254654.9
1502191395.1,286047000.2,N,237192.3
1502191396.0,286047000.2,N,222669.6
1502191415.8,286047000.1,N,210418.0
1502191435.6,286047002.4,N,199931.6
1502191455.5,286047002.6,N,190838.1
1502191475.3,286047002.1,N,182861.9
1502191495.2,286047002.5,N,175795.7
1502191515.9,286047002.1,N,169481.1
1502191535.7,286047001.3,N,163795.4
1502191555.6,286047001.6,N,158641.5
1502191575.4,286047001.7,N,153942.3
1502191595.3,286047001.3,N,149634.9
1502191615.1,286047001.8,N,145668.1
1502191616.0,286047001.8,N,141999.5
1502191635.8,286047004.1,N,138593.8
1502191655.7,286047003.4,N,135421.0
1502191675.5,286047003.3,N,132455.8
1502191695.4,286047003.0,N,129676.8
1502191715.2,286047003.3,N,127065.1
1502191735.0,286047003.2,N,124604.8
1502191735.9,286047003.2,N,122281.7
1502191755.8,286047003.2,N,120083.7
1502191775.6,286047005.6,N,117999.8
1502191795.5,286047005.7,N,116020.6
1502191815.3,286047003.4,N,114137.5
1502191835.1,286047003.7,N,114138.5
1502191855.9,286047004.3,N,114112.7
1502191875.7,286047001.7,N,1.4
1502191895.6,286047003.6,N,1.4
1502191915.4,286047003.3,N,1.4
1502191935.2,286047003.0,N,1.3
1502191955.1,286047005.7,Y,0.0
1502191956.0,286047005.7,P,1.5
1502191975.8,286047002.8,N,1.4
1502191995.7,286046999.8,N,2.1
1502192015.5,286047002.4,N,1.9
1502192035.4,286046999.9,N,2.0
1502192055.2,286046999.8,N,2.0
1502192075.0,286047002.4,N,1.9
1502192075.9,286047002.4,N,1.8
1502192095.8,286047002.6,N,1.7
1502192115.6,286047000.6,N,1.7
1502192135.5,286047000.5,N,1.7
1502192155.3,286046999.9,N,1.7
1502192175.1,286046999.8,N,1.7
1502192195.9,286047000.1,N,1.7
1502192215.7,286047000.1,N,1.7
1502192235.5,286047000.1,N,1.6
1502192255.4,286047002.3,N,1.6
1502192275.2,286047002.3,N,1.6
1502192295.1,286046999.8,N,1.6
1502192296.0,286046999.8,N,1.6
1502192315.8,286047002.6,N,1.6
1502192335.6,286046999.9,N,1.5
1502192355.5,286047000.9,N,1.5
1502192375.3,286047000.4,N,1.5
1502192395.2,286047000.1,N,1.5
1502192415.9,286047001.0,N,1.5
1502192435.7,286046999.9,N,1.4
1502192455.6,286047000.1,N,1.4
1502192475.4,286047002.2,N,1.4
1502192495.3,286047002.8,N,1.4
1502192515.1,286047000.2,N,1.1
1502192516.0,286047000.2,N,1.1
1502192535.8,286047000.1,N,1.1
1502192555.7,286047002.8,N,1.1
1502192575.5,286047002.5,N,1.1
1502192595.3,286047001.9,N,1.1
1502192615.2,286047002.6,N,1.1
1502192635.0,286047001.3,N,1.1
1502192635.9,286047001.3,N,1.1
1502192655.8,286047001.3,N,1.1
1502192675.6,286046999.7,N,1.1
1502192695.4,286047001.8,N,1.1
1502192715.3,286047003.9,Y,0.0
1502192735.1,286047002.5,P,0.8
1502192755.9,286047002.8,P,0.8
1502192775.7,286047002.5,P,0.7
1502192795.6,286047002.7,Y,0.0
1502192815.4,286046999.1,P,1.5
1502192835.2,286046998.4,N,1.7
1502192855.1,286046998.4,N,1.6
1502192856.0,286046998.4,N,1.5
1502192875.8,286046998.6,N,1.4
1502192895.6,286047001.1,N,1.4
1502192915.5,286046998.4,N,1.4
1502192935.3,286047000.5,N,1.4
1502192955.2,286047001.1,N,1.4
1502192975.9,286047001.2,N,1.4
1502192995.7,286047000.5,N,1.3
1502193015.6,286682706.1,Y,0.0
1502193035.4,286047000.5,P,0.3
1502193055.3,286047000.9,N,0.4
1502193075.1,286047001.2,N,0.5
1502193095.8,286046999.7,N,0.6
1502193115.7,286046998.9,N,0.8
1502193135.5,286046999.5,N,0.8
1502193155.4,286046996.9,Y,0.0
1502193175.2,286046999.6,P,0.2
1502193195.0,286046997.4,P,1.2
1502193226.0,286046999.2,E,nan
1502193235.9,286047001.2,N,0.0
1502193255.7,286046998.5,P,1.4
1502193275.6,286046998.4,N,1.3
1502193295.4,286046998.2,N,1.2
1502193315.2,286047000.7,N,1.3
1502193335.1,286046998.1,N,1.3
1502193336.0,286046998.1,N,1.2
1502193355.8,286047001.0,N,1.3
1502193375.7,286047000.8,N,1.3
1502193395.5,286046998.2,N,1.3
1502193415.3,286046998.2,N,1.3
1502193435.2,286047001.1,N,1.3
1502193455.0,286046998.1,N,1.3
1502193455.9,286046998.1,N,1.3
1502193475.8,286047001.1,N,1.4
1502193495.6,286046998.1,N,1.4
1502193515.4,286047000.8,N,1.4
1502193535.3,286047000.9,N,1.4
1502193555.1,286046998.7,N,1.3
1502193575.9,286046998.7,N,1.3
1502193595.7,286046998.9,N,1.3
